Date String (YYYY-MM-DD hh:mm:ss) UTC,Instrument flags,absolute air pressure of the measurement (hPa),sample flow rate (lpm),inlet stack bypass flow (lpm),air temperature of the measurement (°C),ambient temperature measured by the external sensor (°C),aerosol sample conditioner tube jacket temperature (°C),OPC LED temperature (°C),internal box temperature (°C),relative humidity of the measurement (%),span deviation,mass concentration of particles derived from Lorenz-Mie calculation of OPC scattering (μg/m³),mass concentration of particles derived from Lorenz-Mie calculation of OPC scattering (μg/m³),mass concentration of particles derived from Lorenz-Mie calculation of OPC scattering (μg/m³)
DateTimeUTC,F1_M11,P_M11,Q1_M11,Q2_M11,T1_M11,T2_M11,T3_M11,T4_M11,T5_M11,U1_M11,ZSPAN_M11,X0_M11,X2_M11,X1_M11
2023-08-07 21:00:00,SystemResetWarning,0831.6,5.01,000.00,029.0,025.0,000.0,037.2,030.3,20.1,0000.0,0010.37,0003.35,0002.37
2023-08-07 21:01:00,SystemResetWarning,0831.6,4.99,000.00,028.9,025.3,000.0,037.3,030.3,20.9,0000.0,0010.39,0003.35,0002.37
2023-08-07 21:02:00,SystemResetWarning,0831.6,5.00,000.00,028.9,025.8,000.0,037.3,030.4,21.2,0000.0,0010.45,0003.34,0002.37
2023-08-07 21:03:00,SystemResetWarning,0831.6,5.01,000.00,028.9,026.2,000.0,037.4,030.5,20.6,0000.0,0010.49,0003.39,0002.39
2023-08-07 21:04:00,SystemResetWarning,0831.6,4.99,000.00,028.9,026.6,000.0,037.4,030.6,20.4,0000.0,0010.59,0003.41,0002.39
2023-08-07 21:05:00,SystemResetWarning,0831.6,5.01,000.00,028.9,027.0,000.0,037.4,030.7,21.0,0000.0,0010.57,0003.40,0002.39
2023-08-07 21:06:00,SystemResetWarning,0831.6,5.00,000.00,029.0,027.3,000.0,037.4,030.7,20.9,0000.0,0009.70,0003.36,0002.41
2023-08-07 21:07:00,SystemResetWarning,0831.6,4.99,000.00,029.0,027.5,000.0,037.4,030.8,21.4,0000.0,0008.77,0003.33,0002.41
2023-08-07 21:08:00,SystemResetWarning,0831.6,5.00,000.00,029.1,027.7,000.0,037.5,030.9,21.5,0000.0,0008.73,0003.31,0002.41
2023-08-07 21:09:00,SystemResetWarning,0831.6,5.00,000.00,029.1,027.9,000.0,037.5,030.9,21.6,0000.0,0008.69,0003.27,0002.40
2023-08-07 21:10:00,SystemResetWarning,0831.6,4.99,000.00,029.2,027.4,000.0,037.5,030.9,21.7,0000.0,0008.53,0003.24,0002.40
2023-08-07 21:11:00,SystemResetWarning,0831.7,4.99,000.00,029.1,025.5,000.0,037.3,030.5,21.3,0000.0,0008.09,0003.22,0002.40
2023-08-07 21:12:00,SystemResetWarning,0831.6,5.00,000.00,029.0,024.8,000.0,037.2,030.3,21.4,0000.0,0007.71,0003.26,0002.41
2023-08-07 21:13:00,SystemResetWarning,0831.7,5.02,000.00,029.0,025.1,000.0,037.2,030.2,21.5,0000.0,0007.68,0003.26,0002.43
2023-08-07 21:14:00,SystemResetWarning,0831.7,4.99,000.00,028.9,025.4,000.0,037.3,030.2,21.3,0000.0,0006.82,0003.21,0002.44
2023-08-07 21:15:00,SystemResetWarning,0831.7,5.00,000.00,028.9,025.9,000.0,037.3,030.4,20.8,0000.0,0006.70,0003.21,0002.44
2023-08-07 21:16:00,SystemResetWarning,0831.7,5.00,000.00,028.9,026.3,000.0,037.3,030.5,21.1,0000.0,0006.61,0003.23,0002.45
2023-08-07 21:17:00,SystemResetWarning,0831.7,5.00,000.00,028.9,026.7,000.0,037.4,030.6,21.1,0000.0,0006.78,0003.25,0002.44
2023-08-07 21:18:00,SystemResetWarning,0831.6,5.00,000.00,029.0,027.1,000.0,037.4,030.7,21.2,0000.0,0007.14,0003.28,0002.43
2023-08-07 21:19:00,SystemResetWarning,0831.7,5.00,000.00,029.0,027.3,000.0,037.4,030.7,21.4,0000.0,0007.27,0003.32,0002.44
2023-08-07 21:20:00,SystemResetWarning,0831.7,5.01,000.00,029.0,027.6,000.0,037.4,030.8,20.4,0000.0,0007.41,0003.36,0002.47
2023-08-07 21:21:00,SystemResetWarning,0831.6,5.00,000.00,029.1,027.8,000.0,037.5,030.9,20.8,0000.0,0007.44,0003.38,0002.49
2023-08-07 21:22:00,SystemResetWarning,0831.6,5.00,000.00,029.1,028.0,000.0,037.5,030.9,20.1,0000.0,0006.86,0003.37,0002.51
2023-08-07 21:23:00,SystemResetWarning,0831.6,4.98,000.00,029.2,027.0,000.0,037.4,030.8,20.5,0000.0,0006.39,0003.35,0002.51
2023-08-07 21:24:00,SystemResetWarning,0831.6,5.00,000.00,029.1,025.8,000.0,037.3,030.6,20.9,0000.0,0006.27,0003.34,0002.50
2023-08-07 21:25:00,SystemResetWarning,0831.6,5.02,000.00,029.1,025.8,000.0,037.3,030.5,20.9,0000.0,0007.36,0003.41,0002.50
2023-08-07 21:26:00,SystemResetWarning,0831.6,5.00,000.00,029.0,026.1,000.0,037.3,030.4,20.7,0000.0,0007.94,0003.43,0002.52
2023-08-07 21:27:00,SystemResetWarning,0831.6,4.99,000.00,029.0,026.4,000.0,037.4,030.5,20.6,0000.0,0007.95,0003.43,0002.54
2023-08-07 21:28:00,SystemResetWarning,0831.7,4.99,000.00,029.0,026.8,000.0,037.4,030.6,21.3,0000.0,0007.97,0003.43,0002.57
2023-08-07 21:29:00,SystemResetWarning,0832.1,4.99,000.00,029.1,027.1,000.0,037.5,030.8,21.9,0000.0,0007.88,0003.45,0002.60
2023-08-07 21:30:00,SystemResetWarning,0831.9,5.00,000.00,029.1,027.4,000.0,037.5,030.8,21.7,0000.0,0007.88,0003.45,0002.62
2023-08-07 21:31:00,SystemResetWarning,0831.8,5.01,000.00,029.1,027.7,000.0,037.5,030.9,22.0,0000.0,0008.33,0003.47,0002.64
2023-08-07 21:32:00,SystemResetWarning,0831.9,5.01,000.00,029.2,027.9,000.0,037.6,031.0,22.4,0000.0,0008.33,0003.47,0002.64
2023-08-07 21:33:00,SystemResetWarning,0831.8,4.98,000.00,029.2,027.2,000.0,037.5,030.9,22.3,0000.0,0008.37,0003.50,0002.63
2023-08-07 21:34:00,SystemResetWarning,0831.8,5.00,000.00,029.2,025.8,000.0,037.4,030.6,22.2,0000.0,0008.35,0003.51,0002.63
2023-08-07 21:35:00,SystemResetWarning,0831.8,5.01,000.00,029.1,025.7,000.0,037.3,030.5,22.0,0000.0,0008.35,0003.52,0002.68
2023-08-07 21:36:00,SystemResetWarning,0831.8,4.99,000.00,029.1,026.0,000.0,037.4,030.4,22.6,0000.0,0008.38,0003.50,0002.71
2023-08-07 21:37:00,SystemResetWarning,0831.9,5.00,000.00,029.0,026.3,000.0,037.4,030.5,22.9,0000.0,0007.47,0003.47,0002.72
2023-08-07 21:38:00,SystemResetWarning,0831.9,5.01,000.00,029.0,026.7,000.0,037.5,030.7,22.6,0000.0,0007.54,0003.48,0002.72
2023-08-07 21:39:00,SystemResetWarning,0831.9,5.00,000.00,029.1,027.1,000.0,037.5,030.8,22.3,0000.0,0007.68,0003.50,0002.73
2023-08-07 21:40:00,SystemResetWarning,0831.9,5.00,000.00,029.1,027.4,000.0,037.5,030.8,21.7,0000.0,0008.07,0003.52,0002.73
2023-08-07 21:41:00,SystemResetWarning,0832.0,5.00,000.00,029.2,027.6,000.0,037.5,030.9,21.8,0000.0,0008.02,0003.51,0002.73
2023-08-07 21:42:00,SystemResetWarning,0832.0,5.00,000.00,029.2,027.7,000.0,037.6,031.0,21.7,0000.0,0007.62,0003.49,0002.75
2023-08-07 21:43:00,SystemResetWarning,0832.0,4.98,000.00,029.2,026.4,000.0,037.5,030.8,22.0,0000.0,0007.52,0003.48,0002.75
2023-08-07 21:44:00,SystemResetWarning,0832.0,5.01,000.00,029.1,024.8,000.0,037.3,030.4,22.6,0000.0,0007.46,0003.45,0002.77
2023-08-07 21:45:00,SystemResetWarning,0832.0,5.01,000.00,029.0,024.8,000.0,037.3,030.3,22.8,0000.0,0007.51,0003.45,0002.78
2023-08-07 21:46:00,SystemResetWarning,0832.1,5.00,000.00,028.9,025.1,000.0,037.3,030.2,22.3,0000.0,0007.59,0003.46,0002.76
2023-08-07 21:47:00,SystemResetWarning,0832.2,4.99,000.00,028.9,025.6,000.0,037.3,030.3,21.2,0000.0,0007.45,0003.51,0002.75
2023-08-07 21:48:00,SystemResetWarning,0832.2,5.00,000.00,028.9,026.1,000.0,037.4,030.4,21.6,0000.0,0007.59,0003.54,0002.75
2023-08-07 21:49:00,SystemResetWarning,0832.2,5.00,000.00,028.9,026.5,000.0,037.4,030.5,22.4,0000.0,0007.76,0003.55,0002.74
2023-08-07 21:50:00,SystemResetWarning,0832.2,5.00,000.00,028.9,026.8,000.0,037.4,030.6,22.5,0000.0,0007.62,0003.52,0002.73
2023-08-07 21:51:00,SystemResetWarning,0832.3,5.00,000.00,029.0,027.2,000.0,037.4,030.7,22.6,0000.0,0007.56,0003.54,0002.74
2023-08-07 21:52:00,SystemResetWarning,0832.3,4.99,000.00,029.0,027.4,000.0,037.5,030.8,22.7,0000.0,0007.70,0003.57,0002.74
2023-08-07 21:53:00,SystemResetWarning,0832.4,4.99,000.00,029.1,027.7,000.0,037.5,030.9,22.4,0000.0,0007.93,0003.54,0002.73
2023-08-07 21:54:00,SystemResetWarning,0832.5,5.00,000.00,029.1,027.9,000.0,037.5,030.9,22.3,0000.0,0007.90,0003.52,0002.72
2023-08-07 21:55:00,SystemResetWarning,0832.5,4.99,000.00,029.2,027.8,000.0,037.5,030.9,22.4,0000.0,0007.99,0003.56,0002.71
2023-08-07 21:56:00,SystemResetWarning,0832.5,5.00,000.00,029.2,026.1,000.0,037.4,030.7,22.6,0000.0,0008.01,0003.59,0002.68
2023-08-07 21:57:00,SystemResetWarning,0832.5,5.01,000.00,029.1,024.8,000.0,037.3,030.4,22.7,0000.0,0008.14,0003.62,0002.65
2023-08-07 21:58:00,SystemResetWarning,0832.5,5.01,000.00,029.0,024.9,000.0,037.2,030.3,22.9,0000.0,0008.04,0003.56,0002.60
2023-08-07 21:59:00,SystemResetWarning,0832.6,5.00,000.00,028.9,025.3,000.0,037.3,030.2,22.5,0000.0,0008.61,0003.54,0002.56
